Powrót do katalogu

ARIANE 44L+3 DEB (SPELDA

AktywnyHEO
NORAD 23867·DEBRIS·🇫🇷 France

Wystrzelony May 16, 1996 z Guiana Space Centre

Loading…

Następne Przeloty (najbliższe 24 godziny)

TLE

ŚwieżeSource: Space-Track

Epoka: Sep 14, 2026, 11:50 UTC

1 23867U 96030D   26257.49333941  .00001516  00000-0  14304-2 0  9999
2 23867   3.8694 222.5966 6549562 182.8236 169.6730  3.18688275301720

Śledź ARIANE 44L+3 DEB (SPELDA w czasie rzeczywistym z AllMySat

Download on the App Store